Showing default

OTTER PUP, 56933

Orbit data source: Space-Track

OTTER PUP, 56933 is a payload satellite owned by Starfish Space (US) in SSO that was launched on Mon, 12 Jun 2023 UTC via an FALCON 9 launch vehicle from the Air Force Western Test Range (AFWTR). Payload-class satellites include a variety of spacecraft equipped with specific instruments for various scientific and technological missions. These include communications satellites like Starlink; space stations such as the ISS; scientific satellites like the Hubble; Earth observation satellites from companies like Planet Labs, Umbra, and HawkEye 360; GPS; miniature CubeSats for education and research; and military/defense satellites.

Loading next visibility...
Identifier
56933, 2023-084B
Orbit
SSO
Country
Flag of USUS
Related business
Manufacturer
Starfish Space
Mission
Partially operational Commercial Technology
Bus & Motor
OTTER, EP
Mass
~50 kg wet, 50 kg dry
Launch date (UTC)
2023-06-12 (2 years ago)
Launch vehicle
FALCON 9
Launch site
Air Force Western Test Range (AFWTR)
Object type
Payload
Rocket body
Debris
Shape & HBR
Box + 2 Pan, 0.5 m
Radar Cross Section
1.500 m², Medium (>0.1 m² and < 1m²)

Expand to show TLE details & history
Last TLE update: 8 hours ago

TLE from 8 hours ago
0 OTTER PUP
1 56933U 23084B   25300.17796255  .00051035  00000-0  71274-3 0  9993
2 56933  97.5819  80.4949 0003209   5.7823 354.3468 15.56711679132580
Epoch: 2025-10-27T04:16Z
TLE epoch observation values (Epoch: 2025-10-27T04:16:15.964Z)
Latitude
-0°
Longitude
-19.35516°
Altitude
398.152 km
Speed
7.673 km/s
True Right ascension
05h 21m 58s
True Declination
0° 00' 00"
Sunlit
Object was in full shadow at epoch
Visualization orbit readout
Latitude
Unknown
Longitude
Unknown
Altitude
Unknown
Speed
Unknown
Apparent Right ascension
Unknown
Apparent Declination
Unknown
Sunlit
N/A
Visualization observer readout
Local Sidereal Time
08:08:49
Azimuth
Unknown
Elevation
Unknown
Doppler factor
Unknown
Orbital elements
Apogee altitude
396.28 km
Perigee altitude
391.933 km
Semi-major axis
6,772.243 km
Eccentricity
0.00032
Inclination
97.5819°
RAAN
80.4949°
Arg. of periapsis
5.7823°
True anomaly
354.34318°
Mean anomaly
354.3468°
Eccentric anomaly
354.34499°
Mean motion
3.89443 °/min
Orbital period
92.44 mins
BSTAR
0.00071274
Loading maneuver chart data...
Computing Atmospheric mass density...

Documentation

Showing up to 5 results
|